カタログに戻る

COSMOS 1275 DEB

運用中PO
NORAD 15780·DEBRIS·🇷🇺 Russia

打ち上げ Jun 4, 1981 から Plesetsk Cosmodrome

Loading…

次のパス (今後24時間)

TLE

最新Source: Space-Track

元期: Sep 14, 2026, 13:12 UTC

1 15780U 81053KE  26257.55027001  .00000869  00000-0  60907-3 0  9998
2 15780  82.8176 180.9263 0049316 247.0226 235.0924 13.96740461 92704

AllMySatでCOSMOS 1275 DEBをリアルタイム追跡

Download on the App Store